Wind_Speed
24 23 25 27 27 27 25 25 24 24 24 24 25 25 26 26 27 28 29 29 29 29 28 27 27 26 26 25 23 22 22 21 22 22 20 21 20 19 19 19 19 18 18 19 20 21 22 22 22 23 23 22 21 21 21 21 20 20 20 20 19 19 19 18 17 18 19 19 20 19 18 18 18 18 18 20 20 20 20 21 20 20 21 19 20
26 25 26 27 27 26 25 25 24 25 25 25 25 25 27 27 27 28 29 28 27 27 26 26 25 25 24 23 22 21 21 21 20 19 19 21 21 19 19 19 18 18 19 20 21 22 23 22 22 23 23 22 21 21 21 21 20 20 20 20 19 19 18 17 18 19 19 19 20 19 18 19 18 18 18 19 20 20 20 20 19 20 20 19 20
26 25 26 28 28 26 25 25 25 26 26 26 26 26 27 27 28 28 28 27 27 26 25 24 24 23 23 22 21 22 22 21 20 19 19 21 20 19 19 19 18 19 20 21 22 23 23 22 23 23 23 22 21 20 21 23 22 20 19 19 18 17 17 18 19 20 20 20 21 20 19 19 19 18 18 18 18 19 18 18 19 20 19 18 19
24 24 24 27 27 26 25 25 25 26 27 26 26 26 26 27 27 27 27 26 26 25 24 24 23 23 22 21 22 23 22 21 20 20 20 20 20 19 19 20 20 20 20 22 22 23 22 22 23 23 22 21 21 20 20 21 22 20 19 18 18 17 17 19 18 19 20 21 23 20 18 19 19 18 17 17 17 17 17 16 17 18 17 17 17
23 24 24 25 25 26 25 25 26 27 27 27 27 28 27 27 27 27 26 25 25 24 24 24 24 23 21 21 23 22 22 21 21 20 19 19 20 19 20 21 21 21 21 22 22 21 20 20 21 21 20 20 20 19 18 19 19 19 18 17 17 18 18 18 17 18 19 20 21 19 16 17 17 17 16 16 16 15 15 15 15 16 17 16 17
23 23 24 24 23 24 25 25 25 26 27 26 27 27 27 26 26 27 26 25 25 24 23 22 21 21 21 23 24 22 22 22 21 21 21 20 19 19 21 22 22 23 22 22 20 19 19 19 19 19 19 19 19 17 17 16 16 15 16 17 16 17 18 17 16 17 18 19 19 17 15 15 15 15 15 15 14 14 14 14 14 15 16 16 16
22 23 24 23 23 24 26 25 25 25 25 25 26 25 25 25 26 25 24 24 23 23 22 21 20 20 21 23 23 23 23 23 22 23 22 20 19 19 20 20 22 22 21 20 19 19 18 18 18 18 17 16 16 15 15 14 14 14 14 15 16 15 16 16 16 17 18 16 15 15 14 14 13 13 13 14 13 13 14 14 14 14 14 14 15
21 23 23 22 22 24 26 24 25 25 24 24 25 25 24 24 24 24 24 24 23 23 23 22 22 22 22 22 22 23 23 22 22 23 22 20 20 19 18 19 22 21 20 19 18 18 18 17 17 16 16 15 14 14 13 13 13 13 12 13 15 15 15 16 16 18 17 15 14 14 14 13 12 12 12 13 12 12 12 12 13 13 13 13 14
20 22 23 22 22 25 26 25 25 25 25 25 24 24 24 24 24 24 24 24 24 24 23 23 22 22 21 21 22 23 23 22 21 22 21 20 19 18 18 20 21 20 19 19 18 18 17 17 17 16 15 14 14 13 12 12 12 12 10 11 13 15 15 16 17 18 15 14 13 13 13 13 12 12 11 12 11 12 12 11 11 13 13 13 13
20 20 22 22 23 26 26 26 24 24 26 25 24 24 25 24 24 25 25 25 24 24 22 21 21 21 20 20 21 22 21 20 20 20 20 18 18 18 18 20 20 19 18 18 18 17 17 17 16 15 14 14 14 13 12 12 11 11 10 10 12 14 15 15 16 15 13 13 14 14 14 14 13 13 13 13 13 13 13 12 12 12 12 12 12
20 20 21 22 24 27 27 26 25 26 26 25 25 25 26 25 26 27 26 26 25 24 22 20 20 20 20 21 21 19 18 18 18 19 19 17 17 18 18 20 19 18 18 18 18 17 16 16 16 15 15 14 13 13 12 13 12 12 11 12 13 14 15 15 15 14 14 14 16 16 16 15 14 15 15 14 14 14 14 14 13 13 12 11 11
20 20 20 22 24 27 28 26 26 26 26 25 25 25 26 26 28 27 26 25 24 22 21 21 20 20 20 20 19 18 18 17 17 18 18 17 17 18 18 19 18 18 18 17 17 17 16 16 16 16 15 14 12 12 13 14 15 14 14 14 14 14 16 17 15 14 15 14 15 15 15 16 16 15 15 15 15 14 14 14 14 14 13 12 12
20 20 20 23 23 26 27 26 26 26 26 26 25 25 25 27 27 25 25 24 22 21 20 21 21 20 19 19 18 17 17 17 17 17 17 17 16 16 18 18 18 18 18 17 17 16 16 16 16 15 13 13 12 12 13 16 16 15 15 15 15 15 17 18 16 15 15 14 15 14 14 15 15 15 14 15 15 15 15 14 14 14 13 14 13
22 20 21 22 23 25 26 26 27 26 26 26 26 26 25 26 25 24 24 23 22 21 21 20 20 19 19 18 18 17 17 16 16 16 16 16 14 16 18 17 17 18 17 17 16 16 16 15 15 14 12 12 12 12 14 16 16 16 15 15 15 16 18 18 16 15 14 14 14 14 14 14 15 15 14 14 15 15 14 14 14 12 13 14 13
22 22 21 21 23 24 24 25 26 26 26 26 26 26 26 24 23 22 22 22 21 20 20 19 19 19 18 18 18 17 16 15 15 14 15 14 13 15 17 16 17 17 16 16 16 15 15 14 14 13 12 12 12 12 14 16 16 16 15 15 15 16 17 17 15 14 14 13 13 13 13 14 15 15 14 14 14 15 14 13 13 12 13 13 13
20 23 21 21 23 23 22 24 25 25 25 25 25 25 25 23 22 21 21 21 20 20 19 19 18 18 17 16 16 15 15 14 14 14 14 14 14 16 16 16 16 17 16 15 15 14 14 13 13 13 12 12 11 12 14 16 16 15 15 14 14 15 16 16 14 14 13 13 13 12 13 14 15 14 13 14 14 14 14 13 13 13 13 13 13
19 21 20 22 23 22 22 22 22 24 24 24 24 23 23 22 21 21 20 20 19 19 19 18 18 17 16 15 15 15 14 14 14 14 14 14 15 15 15 15 17 17 17 16 15 13 12 12 12 11 11 11 11 11 13 15 15 15 14 14 14 13 15 16 14 13 13 13 12 12 12 13 14 14 13 14 13 13 13 13 13 13 13 14 13
18 19 20 22 22 21 22 21 21 22 23 23 22 22 22 21 21 20 20 20 19 18 18 18 17 17 16 15 15 15 15 14 13 14 15 15 15 15 15 15 16 16 16 16 14 12 11 12 11 11 11 11 12 11 12 14 14 14 14 13 13 12 14 16 14 12 12 12 12 11 12 13 14 14 13 13 13 12 13 13 13 13 13 13 13
17 18 19 20 22 21 21 22 22 21 22 23 22 21 21 20 20 20 20 19 19 18 18 18 17 17 16 16 15 15 15 14 14 14 15 14 14 15 15 15 15 15 15 14 13 12 11 11 11 11 11 12 12 11 10 12 13 13 13 12 12 12 13 14 12 12 12 12 11 12 13 14 14 13 13 13 12 12 12 13 13 13 13 13 12
16 18 18 19 21 21 22 21 21 22 22 23 22 20 20 20 20 20 21 20 19 18 18 18 17 16 16 16 16 16 15 14 14 13 14 13 13 13 13 14 15 14 13 13 12 11 11 11 11 11 11 12 13 12 10 10 12 12 12 11 11 11 12 12 12 12 12 12 12 12 14 14 14 13 13 12 11 12 12 12 13 13 12 13 13
15 16 16 17 19 20 22 22 22 22 22 22 22 20 18 19 19 19 20 20 19 18 18 17 17 16 16 16 16 16 16 15 14 13 13 12 12 13 12 12 13 14 13 11 10 10 11 11 10 10 11 11 12 13 11 9 11 12 12 11 10 10 11 11 12 11 12 12 12 12 13 13 13 13 12 12 12 11 11 11 12 12 12 12 12
15 16 17 17 17 20 22 22 22 22 21 22 21 19 18 18 18 18 19 19 19 18 18 17 17 17 16 16 16 16 15 14 13 12 12 12 12 12 12 10 11 12 12 10 9 9 10 10 9 9 10 11 12 13 12 10 10 12 11 11 10 10 10 11 11 11 11 11 11 12 12 12 12 12 12 12 11 10 10 11 11 11 12 12 11
17 18 19 18 19 22 22 21 21 22 21 21 21 20 20 18 18 18 19 18 18 18 18 18 18 17 16 16 16 15 14 13 12 12 11 12 12 12 12 10 9 10 10 9 9 9 9 10 9 9 10 11 12 13 13 11 10 12 12 11 10 9 10 11 11 11 11 10 11 12 12 12 11 11 12 12 10 9 10 11 11 11 11 11 11
18 19 20 21 21 22 21 21 21 22 22 21 21 20 21 19 18 19 19 18 17 18 18 18 18 17 17 16 16 16 15 13 12 12 12 12 11 11 12 11 10 9 9 9 9 8 8 9 9 9 10 10 11 12 13 12 10 11 11 12 10 9 9 10 11 10 10 10 11 12 11 11 10 9 11 11 10 10 11 10 10 10 10 10 11
20 20 21 22 22 23 22 22 21 22 22 22 21 20 21 19 17 18 19 18 17 17 18 18 17 17 17 17 17 17 15 13 12 12 11 11 10 10 11 11 11 10 9 10 9 9 8 8 8 9 9 9 10 11 12 12 11 11 13 14 11 10 9 10 11 10 10 10 11 12 11 10 9 9 10 10 9 9 10 9 9 10 10 10 10
23 21 22 23 23 24 23 22 21 22 22 22 21 21 20 18 17 18 17 16 16 18 19 18 17 17 18 18 18 16 15 13 11 10 10 10 9 11 12 11 11 10 10 9 9 9 9 9 8 9 8 8 9 10 11 10 11 13 15 14 12 11 10 10 10 9 9 9 12 12 10 9 9 9 8 8 9 9 10 9 9 10 9 9 10
26 24 23 24 24 24 23 22 21 22 22 21 22 21 19 18 17 17 17 17 18 20 19 18 17 17 17 17 16 15 14 13 11 10 9 9 9 10 11 10 9 10 10 8 8 8 9 9 8 8 8 7 7 8 10 10 11 14 15 14 13 11 10 10 9 8 8 9 10 11 10 10 9 8 7 9 10 10 10 10 11 10 10 9 9
25 25 24 24 24 24 24 23 21 22 22 22 22 20 19 18 15 15 17 19 20 20 19 18 18 18 16 15 14 13 14 14 13 11 9 10 10 9 10 8 7 8 9 8 8 8 7 7 7 7 7 7 6 7 9 10 10 13 15 14 13 11 10 10 9 8 8 9 10 10 10 9 8 7 8 10 12 12 11 11 11 11 11 10 9
23 25 24 24 25 23 24 23 23 24 24 25 22 19 19 18 15 15 16 17 19 19 19 19 19 17 13 12 13 13 14 14 13 12 10 11 10 9 8 6 6 7 8 8 7 7 6 5 6 6 6 7 8 9 9 10 11 12 14 14 13 11 10 10 9 8 8 9 10 10 9 7 7 8 9 10 10 10 11 11 11 11 11 10 10
21 23 22 23 25 24 23 24 25 26 26 25 21 18 19 18 15 15 14 14 17 19 19 19 18 15 11 11 12 12 12 12 12 12 11 11 11 8 7 6 5 6 6 6 6 6 5 5 5 5 5 6 7 9 11 12 12 12 13 14 13 12 11 10 10 9 9 10 10 10 8 5 6 8 9 9 9 9 9 10 11 10 10 10 9
19 23 21 21 26 25 23 25 26 25 26 25 18 17 18 16 16 14 12 14 18 19 19 18 16 13 12 12 11 10 10 10 11 12 11 11 10 9 7 6 5 5 5 6 5 5 5 5 5 5 6 5 6 9 13 14 14 13 14 14 14 13 12 11 10 10 10 10 9 9 8 5 6 7 8 7 8 8 8 9 10 10 10 9 9
20 23 22 20 26 27 22 23 27 24 24 25 19 16 17 15 16 15 11 14 19 20 19 18 15 13 14 13 11 10 9 9 10 10 10 9 9 8 8 6 5 5 5 6 5 5 6 6 5 6 6 6 6 9 13 14 13 13 13 14 14 13 11 10 11 11 10 10 9 9 8 6 6 7 8 6 5 6 6 7 9 10 9 9 9
19 21 20 19 23 27 23 19 25 26 23 24 20 16 17 15 16 14 12 15 20 20 19 18 16 15 14 13 12 11 10 10 9 9 9 8 8 8 7 6 6 6 6 7 6 5 6 6 6 7 7 7 8 10 12 12 10 9 9 10 10 10 9 10 12 11 10 10 9 8 7 6 7 8 8 6 5 5 6 6 8 9 8 7 7
13 17 17 15 19 25 27 21 22 25 23 23 20 16 17 16 14 13 13 17 18 18 18 17 17 16 14 13 12 11 10 10 10 10 9 8 8 8 6 6 7 7 7 8 6 6 6 6 7 6 6 7 8 9 9 8 8 7 8 7 7 8 9 10 12 11 10 9 8 8 8 7 8 9 8 7 6 5 7 9 10 10 8 6 5
10 15 13 13 18 22 26 26 23 22 22 23 21 17 18 16 13 12 15 18 18 17 18 17 17 16 14 12 11 10 10 10 11 10 9 9 8 7 6 7 8 8 8 7 6 6 6 7 8 6 5 6 6 6 7 7 7 8 8 7 7 9 10 10 10 10 9 9 9 8 8 6 7 8 8 8 7 6 7 9 10 8 6 5 4
14 16 12 11 18 20 23 26 24 22 22 23 21 18 18 16 13 13 15 18 18 17 17 17 16 15 14 12 10 10 10 10 10 10 9 8 7 7 7 7 8 8 8 7 6 6 7 8 8 6 5 5 6 6 7 7 8 9 9 7 8 10 12 11 11 10 8 9 10 9 8 7 6 7 7 8 8 7 6 6 6 5 3 2 2
20 19 16 13 15 21 24 24 23 23 23 22 20 18 17 15 13 13 14 16 17 16 15 15 15 15 13 11 10 10 10 10 10 10 8 8 7 8 8 7 8 7 7 7 7 7 7 8 8 6 4 5 6 7 8 8 9 10 9 9 9 11 12 12 10 9 8 9 10 9 9 8 7 6 7 7 7 6 4 3 3 3 2 2 2
27 25 24 21 17 20 24 24 24 24 23 20 18 18 17 15 14 13 14 15 16 15 14 14 14 14 12 11 10 11 10 10 10 10 8 8 9 9 8 8 7 6 5 6 8 8 7 8 8 5 4 5 7 9 10 10 10 10 9 10 11 11 11 10 8 8 10 11 11 10 9 8 7 7 7 7 5 4 3 2 2 3 3 4 4
25 24 26 27 25 23 22 23 23 24 24 20 18 19 18 16 14 14 13 13 14 14 13 14 14 13 12 11 12 12 11 11 10 10 9 8 9 9 9 8 7 6 5 6 8 8 8 8 7 6 5 6 7 9 11 12 12 11 10 10 11 10 10 9 7 9 10 11 12 11 10 9 8 8 8 6 4 3 3 3 3 3 4 4 4
20 22 25 25 27 27 25 24 24 25 25 21 20 21 20 17 16 15 14 13 14 14 13 14 14 13 12 12 13 12 11 11 10 9 9 9 9 9 9 9 7 7 6 6 7 7 7 8 7 6 7 7 8 9 12 15 16 12 10 10 10 9 8 8 8 8 8 9 11 10 9 9 8 7 6 5 3 3 3 3 3 4 4 4 4
21 24 24 25 27 28 26 26 25 25 24 23 23 22 20 18 17 17 16 15 14 12 12 14 15 13 12 12 12 12 11 11 10 9 9 9 9 9 9 9 8 8 7 5 7 7 6 7 7 7 7 8 10 10 14 17 17 13 9 8 11 9 8 8 7 8 8 9 10 9 8 8 7 6 6 5 4 4 3 3 3 4 3 3 3
25 26 26 27 29 28 28 27 26 26 24 24 24 23 20 17 17 18 17 16 14 12 12 14 15 13 12 11 10 10 10 9 9 9 9 9 9 9 8 8 8 8 7 6 7 7 6 7 7 7 7 8 10 13 16 15 13 13 11 9 10 10 9 8 6 6 8 8 9 10 9 9 8 8 8 6 5 4 3 3 4 4 4 5 5
25 28 29 28 29 29 29 28 26 26 26 25 25 23 20 19 18 18 16 15 14 12 12 13 14 13 12 11 9 10 9 8 9 10 9 8 9 10 8 8 9 8 7 7 7 7 7 7 8 8 8 8 10 15 16 12 12 14 11 8 5 6 7 6 5 5 6 8 10 10 9 9 10 9 8 7 6 5 4 5 6 6 7 8 9
25 28 29 28 29 28 28 28 25 24 26 26 26 23 20 19 17 16 15 13 13 12 11 12 13 12 12 10 9 10 9 9 10 10 10 9 10 10 9 9 10 9 8 7 7 8 7 8 8 8 9 11 11 14 11 9 13 13 7 5 5 5 4 5 7 6 4 6 8 10 9 10 10 9 9 8 7 7 8 8 8 9 10 10 11
25 26 26 25 27 26 27 29 25 24 26 27 27 24 21 21 17 15 15 13 13 13 11 11 12 12 12 11 10 10 10 10 10 10 10 9 10 11 10 9 10 9 8 7 7 8 8 8 9 9 10 10 11 12 9 8 13 11 6 5 4 3 4 7 8 6 4 6 7 9 9 9 10 9 9 9 9 10 10 10 10 10 10 10 11
20 18 20 21 24 26 27 28 27 26 28 27 26 24 24 23 20 18 18 17 17 15 14 14 12 11 12 12 11 11 11 10 10 9 9 9 9 9 10 9 9 8 7 6 7 8 8 9 9 9 10 9 10 12 11 9 11 10 8 5 1 3 8 10 7 4 5 7 7 8 9 9 9 9 11 12 12 12 11 10 10 10 9 9 10
14 12 15 17 22 27 29 29 28 29 30 29 26 25 24 22 21 22 21 20 18 16 16 16 13 12 13 13 13 12 12 11 10 9 8 8 8 8 9 9 8 7 6 6 8 8 8 9 9 9 9 9 9 11 11 11 10 7 7 3 2 7 11 9 7 6 6 5 6 8 9 10 9 8 12 14 12 11 10 10 9 9 9 10 10
10 12 16 17 22 27 29 28 29 30 32 31 27 24 23 22 22 23 21 19 19 17 16 15 14 15 16 15 14 14 12 10 10 9 8 8 9 10 9 8 8 7 6 6 8 8 8 9 9 8 8 10 10 9 10 12 11 7 5 3 4 8 8 5 8 8 7 5 5 7 9 11 10 9 11 12 10 10 10 10 10 9 9 10 10
10 13 17 19 23 26 27 27 29 31 33 31 27 23 21 21 23 22 20 19 20 20 18 15 14 16 17 16 15 14 12 11 10 10 10 9 10 11 10 8 8 8 7 7 7 7 8 9 10 10 9 10 11 10 9 11 10 8 6 4 5 8 5 3 7 8 7 7 6 5 6 8 9 9 10 11 10 10 10 9 10 9 9 9 9
10 13 17 21 24 27 29 28 28 29 31 29 25 21 19 20 20 19 20 22 23 22 20 16 14 15 17 16 15 14 13 12 12 12 11 10 9 9 9 8 8 8 7 7 7 8 8 8 9 10 10 10 12 11 10 9 9 9 9 7 8 8 6 5 7 7 7 8 7 7 8 8 9 8 8 10 9 9 9 9 9 9 8 9 10
9 13 17 20 21 25 29 28 26 26 29 26 21 19 19 18 18 19 21 24 23 23 22 19 16 15 16 15 14 14 14 13 13 13 12 11 9 8 8 8 7 8 7 7 8 8 8 8 8 10 11 10 11 11 10 9 8 9 9 9 8 8 6 6 9 10 8 8 9 10 10 12 12 8 7 9 9 8 8 8 8 8 8 10 12
Wind_Direction
160 156 157 160 154 150 149 145 143 142 141 140 140 140 140 139 144 150 149 147 146 146 142 140 138 135 135 139 139 138 138 135 132 129 129 128 127 125 126 124 121 121 120 118 116 116 115 114 113 112 109 106 103 98 98 98 98 98 96 94 100 105 99 91 85 88 93 96 96 96 94 94 92 88 86 86 85 85 87 87 85 83 82 82 81
154 153 155 157 152 150 148 144 143 143 142 140 139 138 139 138 140 145 146 143 141 141 140 138 136 134 136 138 139 138 136 133 131 129 130 129 129 128 127 126 124 122 121 121 119 119 117 116 115 112 110 107 105 101 98 97 99 100 99 99 100 104 105 101 91 87 92 96 97 96 93 92 91 88 84 82 82 81 81 83 85 84 80 79 79
147 149 152 155 151 149 146 144 143 143 143 140 139 137 137 139 139 140 141 141 139 139 138 137 135 134 136 136 136 135 132 130 131 130 130 130 130 128 127 127 126 123 122 123 122 121 119 116 115 114 112 109 107 104 100 96 95 98 102 102 100 103 111 111 100 92 91 95 97 95 94 93 90 87 85 81 80 80 80 79 79 80 79 78 78
144 146 148 153 150 148 146 144 144 143 143 141 140 136 134 136 138 139 139 139 138 138 137 137 135 134 134 137 136 133 131 131 131 131 131 130 127 127 128 128 126 123 122 122 121 121 119 117 115 114 112 112 109 104 102 95 90 92 97 101 100 103 115 117 109 101 96 96 96 95 95 90 86 85 86 84 82 81 80 78 76 76 77 75 75
141 143 145 147 146 147 145 144 144 143 144 143 143 139 136 134 136 139 139 138 137 137 137 137 135 135 137 138 135 132 132 131 131 131 130 128 129 132 131 128 126 124 124 123 121 121 120 118 116 114 114 115 110 106 104 96 90 87 90 99 103 105 116 123 118 110 104 102 96 95 97 91 87 84 82 81 78 78 76 76 75 74 73 70 69
140 144 145 143 142 144 144 144 144 143 143 144 144 142 140 138 138 138 138 138 136 136 136 135 136 140 141 138 135 135 135 132 132 131 129 130 134 133 127 124 125 126 126 124 122 121 121 120 117 115 115 115 112 110 108 101 93 88 86 95 103 104 109 120 122 118 113 106 95 95 99 96 93 84 76 73 70 74 75 71 70 71 71 69 66
140 143 144 142 141 143 144 144 143 141 139 141 141 140 141 141 141 139 138 137 136 136 135 135 136 138 137 135 135 136 133 131 131 131 132 131 129 124 122 122 123 127 127 126 125 123 123 121 118 116 115 115 114 114 113 108 99 92 88 91 102 106 107 113 119 123 119 104 94 98 101 99 95 87 79 76 73 74 77 72 69 68 68 70 68
141 143 143 142 142 145 144 142 142 139 136 137 137 138 138 138 140 140 139 138 138 138 137 136 136 136 135 135 136 135 131 129 130 131 131 129 126 123 124 124 126 129 128 128 127 126 125 123 121 118 117 117 116 115 114 112 105 101 95 90 98 107 112 113 116 122 116 100 94 98 99 98 94 92 82 78 77 74 79 78 72 70 67 67 68
142 145 145 142 143 145 144 142 142 140 137 136 135 136 135 136 139 141 141 141 141 140 139 139 140 139 139 140 140 138 132 128 128 130 132 131 131 129 128 129 131 133 131 131 131 129 127 126 124 121 122 121 121 119 114 111 109 108 104 95 97 106 112 116 117 117 107 96 96 95 96 95 92 93 86 77 74 69 79 83 75 73 70 70 74
143 146 147 143 145 147 145 144 142 140 138 137 136 134 135 138 140 141 140 141 141 141 141 142 142 141 141 141 138 134 129 127 128 130 131 132 134 130 129 133 136 135 134 136 135 132 129 128 126 124 125 126 125 119 111 109 108 112 113 104 101 106 111 118 118 111 103 98 96 95 95 94 90 92 90 84 84 80 81 85 83 80 77 78 80
143 147 148 144 148 150 147 146 143 141 139 139 137 137 139 140 139 138 137 138 140 142 143 144 143 141 141 139 134 129 129 130 131 133 132 134 136 132 130 135 138 136 138 139 136 133 131 131 129 128 128 126 120 111 108 109 111 114 115 109 105 106 111 117 116 109 105 102 98 97 94 92 91 92 92 88 92 91 85 86 86 84 84 82 81
146 148 149 147 150 150 148 147 145 144 142 140 139 140 142 141 139 138 139 140 141 143 145 146 144 143 142 138 134 132 133 133 135 138 136 138 137 136 137 138 139 139 142 141 138 137 136 135 132 131 128 121 113 108 111 113 115 113 112 110 106 106 110 113 113 111 108 106 103 100 95 93 93 94 94 88 88 88 85 86 83 82 83 83 81
149 150 150 149 151 150 149 149 146 145 143 141 140 141 140 141 142 141 141 142 142 144 145 146 146 145 143 139 138 136 135 135 140 141 139 139 135 138 142 141 143 144 145 144 142 143 139 136 133 131 127 120 113 110 115 117 115 110 110 110 107 107 110 112 113 112 109 108 105 102 100 97 98 99 95 89 88 89 88 88 86 83 83 85 82
150 150 151 150 152 151 150 150 148 145 144 143 143 142 141 143 145 142 139 141 144 145 145 144 145 145 144 142 141 140 140 139 141 143 142 141 136 138 143 144 147 148 147 146 144 143 138 135 133 131 128 121 117 115 119 121 116 110 109 109 107 107 109 113 114 113 110 109 107 103 101 99 100 99 96 94 94 93 91 90 88 83 84 85 80
148 149 152 150 151 152 151 150 148 146 146 145 145 144 143 144 145 142 140 142 145 145 145 143 143 143 143 143 143 142 142 139 139 143 143 143 140 138 143 145 148 149 147 144 142 141 137 134 134 132 129 123 119 119 122 124 120 113 111 109 108 107 110 114 116 115 113 111 109 103 101 102 102 100 99 98 96 96 94 91 87 83 85 85 81
148 149 151 152 152 153 152 151 149 146 146 146 145 144 143 145 145 144 143 145 146 145 145 143 143 143 142 141 140 141 141 141 142 144 140 140 141 137 140 140 144 147 144 142 142 140 136 135 135 133 130 125 121 120 124 128 125 119 113 110 108 107 109 114 117 115 114 113 110 105 103 107 108 104 100 98 97 99 97 93 89 86 88 89 86
149 150 149 152 155 153 151 153 152 147 145 145 144 144 145 148 148 147 147 147 146 145 145 143 143 142 143 143 142 142 142 144 145 146 142 138 140 139 139 137 140 145 145 144 142 137 135 135 134 132 130 127 123 122 125 130 131 125 118 112 110 108 105 110 116 114 114 114 110 106 105 110 112 105 101 100 99 98 97 94 92 91 92 91 89
150 153 151 153 155 153 151 153 152 148 146 145 144 147 148 151 151 149 149 148 146 146 145 143 143 143 144 145 145 144 142 144 144 146 147 140 137 139 140 140 141 146 146 144 141 137 136 137 134 132 131 129 126 124 127 133 136 131 123 116 112 110 106 107 112 113 113 113 109 104 108 113 110 105 102 100 98 97 97 96 95 94 95 94 94
151 154 153 155 155 152 151 153 152 151 149 147 147 150 151 153 154 152 151 151 148 147 146 145 145 144 144 145 143 142 141 142 141 142 145 142 138 137 137 140 140 144 146 143 142 142 141 141 139 138 134 133 131 127 130 136 141 139 130 121 116 113 108 107 111 112 110 111 109 106 114 117 109 105 104 103 101 99 97 96 96 94 95 96 97
151 152 152 155 157 153 151 152 154 154 152 150 149 151 155 157 158 156 153 152 150 150 147 146 145 144 145 144 142 140 140 140 137 136 139 142 140 135 136 142 141 143 149 147 147 148 150 150 147 146 140 137 135 132 134 141 147 145 138 129 121 116 112 114 115 110 107 107 108 111 118 115 108 108 107 105 102 98 98 99 99 96 96 95 95
150 151 152 153 156 156 155 155 157 157 155 152 149 150 157 158 157 153 151 151 152 151 149 147 144 145 146 145 144 141 139 138 135 134 138 142 141 137 138 144 144 148 153 152 152 155 158 159 155 151 146 141 138 134 136 145 153 150 145 137 127 123 120 119 115 108 108 105 107 114 115 111 110 111 109 104 102 102 100 99 100 98 97 96 95
151 153 154 154 157 161 160 160 161 160 156 154 151 151 155 154 153 151 151 153 153 150 149 149 147 146 149 147 145 140 137 136 137 140 140 141 145 148 149 147 146 150 156 160 164 169 170 167 163 160 154 149 145 140 139 145 155 156 152 143 137 134 126 121 117 111 110 107 110 115 113 115 118 112 111 110 108 108 102 100 100 98 97 96 95
155 158 160 163 167 167 164 163 163 161 157 156 154 155 155 153 154 155 154 152 150 151 150 151 151 150 150 148 144 140 138 138 142 143 138 137 144 154 157 159 157 153 159 164 169 175 177 175 170 166 161 156 153 149 147 147 155 162 160 153 149 140 128 123 120 115 111 109 115 116 110 112 112 103 106 112 107 101 100 101 101 99 99 99 98
162 164 167 172 172 170 168 166 165 162 158 158 157 157 157 156 157 156 154 151 150 154 155 155 153 151 149 147 145 143 138 137 142 141 136 134 138 146 149 152 152 147 149 149 153 162 167 173 172 167 164 159 157 156 155 155 156 162 166 162 158 145 132 127 124 119 113 112 118 119 112 111 108 99 101 109 111 106 105 104 104 103 101 101 98
164 165 170 174 174 173 171 170 168 164 163 160 158 159 159 159 160 158 156 156 157 159 160 159 154 151 151 149 148 146 140 140 143 138 135 133 134 138 139 139 138 132 132 134 139 144 147 156 163 165 166 159 157 159 159 162 161 161 165 164 160 150 139 132 129 121 115 116 121 120 115 112 109 105 98 98 110 114 113 112 110 109 105 104 100
165 166 170 174 177 178 173 171 169 166 167 165 162 162 162 162 162 161 160 161 164 166 165 162 156 153 153 151 151 150 146 143 140 134 134 136 135 135 135 134 131 125 123 127 132 133 133 139 146 153 157 154 153 157 160 163 164 163 163 163 160 154 147 140 133 124 118 119 124 124 115 108 107 107 93 82 100 111 111 111 108 108 107 103 97
167 169 172 176 179 180 178 173 170 171 170 168 167 167 165 165 165 164 164 165 167 168 167 163 159 157 158 156 155 153 149 143 139 135 136 141 138 136 136 133 127 124 122 121 124 126 126 129 134 139 142 146 151 156 159 160 163 164 163 161 161 159 153 145 136 128 122 119 126 126 113 109 108 102 88 84 101 106 104 103 100 99 99 97 93
167 170 175 180 181 181 182 177 172 173 173 171 170 169 170 167 164 166 167 168 168 168 167 164 161 162 162 161 159 155 151 147 146 143 141 145 142 139 138 131 126 126 125 123 124 127 129 130 133 136 135 142 157 162 160 159 161 165 164 161 162 163 158 149 141 132 124 121 127 128 122 119 110 95 93 98 99 95 94 95 94 92 91 94 93
169 173 176 179 181 181 183 181 174 174 176 175 172 169 170 168 166 170 170 168 169 168 166 164 163 165 164 164 165 161 156 151 150 149 146 148 146 144 138 131 129 126 124 122 124 132 138 141 138 139 138 144 164 166 161 162 162 165 166 164 165 167 163 154 145 136 127 126 130 135 134 125 109 97 101 109 103 95 94 95 96 93 89 88 87
169 175 177 176 180 182 182 183 177 175 179 178 173 169 168 169 171 172 170 171 172 168 164 164 163 165 164 164 166 163 160 155 153 153 150 150 150 149 142 135 132 126 127 123 123 135 148 157 150 150 151 151 165 168 165 166 166 167 167 168 170 170 167 159 149 140 135 136 136 139 137 118 103 102 107 114 110 107 102 97 96 90 84 80 78
170 176 182 176 179 184 182 184 181 174 179 180 174 172 173 174 174 172 172 175 173 166 163 164 164 165 164 163 161 158 159 156 155 154 150 151 153 153 149 142 136 132 135 130 123 133 156 168 165 161 161 157 158 166 170 169 169 170 170 173 174 174 172 163 152 143 143 145 140 137 134 111 95 107 119 118 114 116 110 103 98 91 85 81 81
176 181 185 177 178 186 180 179 183 180 180 182 177 175 179 180 176 174 176 175 171 167 165 166 165 163 162 160 158 157 157 157 158 155 151 152 156 160 158 153 150 144 140 136 122 127 152 164 169 166 162 159 151 159 170 169 164 165 170 175 176 175 171 160 153 148 147 148 140 134 135 120 101 109 119 119 126 122 107 109 105 98 93 87 86
184 184 186 177 175 186 185 173 177 184 186 184 181 181 182 181 179 178 177 173 171 171 169 169 166 162 160 158 157 157 159 161 162 160 158 159 165 169 170 171 165 153 147 142 126 125 145 159 167 164 160 156 148 153 164 160 150 148 158 170 174 170 162 154 151 147 147 149 144 138 140 132 116 116 117 119 136 114 98 108 103 104 107 100 94
181 179 184 179 169 179 190 187 178 182 187 187 185 185 185 182 181 180 177 175 173 173 173 171 167 162 159 157 157 159 160 164 167 167 168 173 179 180 180 176 165 155 150 145 137 133 146 162 165 164 160 148 139 144 150 146 135 133 145 162 168 155 147 150 149 146 148 153 156 149 143 137 124 122 121 117 119 105 107 111 104 107 112 110 105
182 183 187 181 171 171 181 188 191 187 186 192 192 188 187 183 181 181 179 178 176 176 175 171 168 164 159 157 159 161 162 168 169 170 176 182 187 187 182 170 160 157 154 149 145 141 149 163 165 163 154 135 124 127 132 134 130 132 145 158 163 155 147 149 149 149 158 165 165 156 147 138 124 125 119 107 106 104 105 107 106 109 109 109 107
193 192 189 179 177 181 180 181 191 194 190 197 198 191 187 184 182 182 180 180 178 177 176 171 168 166 161 159 162 165 168 173 172 172 179 183 186 186 180 170 164 163 162 160 157 153 154 161 165 162 145 129 123 122 122 124 120 124 140 150 157 161 159 157 153 154 171 176 163 155 157 151 138 138 123 108 109 109 101 99 103 108 105 101 80
196 196 193 186 179 188 195 192 194 198 197 199 198 190 186 184 183 181 180 181 180 177 173 170 168 167 166 164 166 171 174 176 175 176 179 182 183 183 181 177 174 170 169 171 171 166 159 159 166 163 141 130 125 121 118 117 116 122 136 147 152 158 160 156 151 160 181 177 160 156 165 163 157 150 132 120 114 108 105 101 96 91 73 48 35
194 194 195 195 187 184 191 193 194 199 201 198 194 188 185 185 184 182 183 183 181 176 171 168 168 168 169 170 173 177 178 178 179 180 182 184 184 182 182 187 186 177 171 175 177 173 165 164 166 159 141 133 129 126 123 120 119 123 136 148 153 154 152 146 149 177 186 175 163 160 161 159 159 155 146 144 136 121 116 99 77 61 48 40 40
191 190 195 197 197 194 193 191 191 197 200 197 191 188 184 183 182 182 182 180 178 175 171 168 167 167 169 174 178 180 180 179 180 183 187 191 190 187 187 192 192 184 174 175 178 175 171 166 158 148 136 129 134 131 127 124 120 129 143 144 147 150 148 148 163 181 180 169 164 164 161 156 157 157 155 157 159 146 126 98 79 58 48 46 50
190 191 195 197 198 200 200 199 197 198 197 194 190 188 185 184 183 182 179 178 177 174 172 170 167 167 171 176 180 181 179 178 182 186 192 200 200 196 193 194 194 188 184 183 181 176 169 163 151 144 135 126 132 133 133 127 116 124 140 130 129 140 144 148 161 169 167 164 166 166 162 162 166 166 163 164 162 135 113 94 74 63 62 55 46
193 194 192 195 198 197 196 195 197 197 192 190 191 190 187 184 184 184 181 179 179 175 172 170 168 169 173 177 179 178 176 179 184 187 195 204 206 202 197 196 195 190 189 189 183 177 170 164 151 144 142 135 134 139 144 134 119 120 127 110 107 118 139 155 166 168 165 162 166 171 166 166 171 172 170 167 157 138 125 104 75 73 75 61 45
193 196 193 194 196 195 194 191 191 193 190 190 193 192 189 184 182 184 181 178 180 178 175 172 171 173 175 177 176 174 175 181 186 189 195 203 206 204 199 196 193 188 189 192 188 182 175 169 158 148 148 143 141 147 149 141 132 134 135 122 104 98 117 144 160 166 168 166 168 176 170 164 171 174 173 167 155 148 140 118 98 92 88 84 83
193 197 197 195 194 195 194 188 187 190 190 190 191 190 189 188 184 182 179 174 177 178 175 174 172 173 176 175 174 174 177 181 184 188 192 197 204 203 195 190 190 187 190 191 189 186 179 176 172 160 151 144 146 155 154 145 142 143 142 141 126 108 108 111 112 128 163 173 175 181 174 172 182 179 173 171 162 156 147 130 119 111 105 102 100
194 198 199 194 192 192 188 185 186 188 190 191 189 187 187 187 183 179 176 172 174 173 169 172 172 171 171 171 174 176 178 180 179 184 189 191 195 195 193 193 192 191 192 188 185 187 182 179 181 176 161 150 152 164 165 154 152 151 146 138 146 156 136 114 105 99 133 162 172 178 172 177 185 179 180 183 169 154 145 135 127 119 113 109 108
198 199 199 194 190 187 182 184 187 188 191 193 189 185 182 182 177 173 173 170 169 168 168 173 171 170 170 170 174 175 175 176 179 184 188 187 186 190 194 193 190 189 189 187 186 188 183 180 183 185 178 164 160 168 173 170 167 164 155 142 151 168 146 135 123 103 123 133 147 159 159 173 181 176 180 174 154 146 141 136 131 123 118 115 115
201 195 192 188 184 182 179 184 189 189 193 193 189 185 181 179 173 169 172 171 168 171 175 175 171 169 170 171 170 169 172 175 178 182 182 185 187 190 189 183 183 184 184 184 181 185 185 184 188 189 188 177 165 168 171 174 175 169 163 164 205 159 148 152 145 122 128 120 121 138 144 164 170 160 156 150 143 143 139 136 130 123 119 116 116
197 181 178 178 178 179 179 186 192 190 192 192 188 186 181 178 174 171 174 172 168 172 176 172 168 167 166 166 164 164 169 173 175 177 177 183 183 185 183 177 176 178 180 180 176 181 185 187 191 193 194 187 175 172 169 171 177 174 167 155 88 138 148 156 160 147 139 119 104 115 123 139 144 133 137 144 146 142 137 133 127 120 117 113 111
178 165 169 172 174 176 179 189 194 191 192 191 187 185 182 179 176 174 176 174 168 166 168 164 161 162 161 160 161 160 164 168 171 171 172 175 173 174 177 173 174 178 178 178 175 176 182 187 190 193 202 200 192 184 173 177 185 181 170 139 104 139 146 155 166 157 145 131 113 108 111 124 130 124 134 145 145 138 134 130 124 121 117 112 111
160 160 168 171 175 178 181 191 198 194 193 191 187 187 184 178 176 175 174 172 166 161 160 158 155 159 158 156 157 158 160 163 165 167 167 167 168 169 173 173 176 180 180 181 179 177 182 192 195 196 204 209 208 202 189 189 192 185 180 153 121 139 140 146 168 162 146 144 141 127 117 118 117 119 137 146 143 138 137 134 131 129 123 118 116
153 160 170 174 177 182 185 194 199 194 193 192 188 188 185 180 176 173 170 167 164 161 158 155 153 155 154 151 152 154 156 160 161 163 163 162 167 169 174 177 177 181 184 185 185 185 190 200 203 204 207 212 216 214 209 207 202 193 191 171 143 148 144 148 171 169 154 151 147 145 147 137 124 122 138 144 140 140 141 139 137 134 128 122 119
150 160 172 179 183 186 189 196 197 192 191 189 186 186 187 184 176 169 168 165 163 162 160 159 156 152 150 149 151 151 153 157 158 159 158 157 162 167 174 179 179 184 188 190 193 193 199 205 207 212 216 218 219 218 215 215 207 198 196 187 174 172 167 168 178 177 171 161 151 151 155 148 137 134 143 143 139 140 141 139 137 134 129 124 123
Height
779 782 784 786 788 789 791 792 794 795 796 797 798 800 800 802 803 805 806 807 808 810 811 812 813 814 815 817 818 819 820 821 822 823 824 825 826 826 826 827 828 828 829 829 830 830 830 831 832 832 832 833 834 833 833 833 833 833 833 833 833 833 834 834 834 834 834 835 835 836 836 836 837 837 837 837 838 838 838 838 839 839 839 840 840
777 781 784 787 788 790 791 793 795 796 797 798 799 800 802 803 805 806 807 809 810 811 812 813 814 815 816 818 819 820 821 822 823 824 825 826 826 827 827 828 829 829 830 830 831 831 831 832 832 833 834 834 835 835 834 834 834 834 834 834 834 834 835 835 835 836 836 836 837 837 838 838 838 839 839 839 839 840 840 840 841 841 841 841 841
778 782 784 787 788 790 791 793 795 797 798 799 800 801 803 804 806 807 809 810 811 812 813 814 815 816 818 819 820 821 822 823 824 825 826 826 827 828 828 829 830 830 831 831 831 832 832 833 833 834 835 835 836 836 836 836 835 835 835 835 836 836 836 836 837 837 837 838 838 838 839 839 840 840 840 841 841 841 842 842 843 842 843 842 842
779 782 785 788 789 791 792 794 795 797 799 800 801 802 804 806 807 809 810 811 812 813 814 816 816 818 819 820 821 822 823 824 826 826 827 827 828 828 829 830 831 831 832 832 833 833 834 834 835 835 836 836 836 837 837 837 837 837 837 837 837 837 837 838 838 838 839 839 839 840 841 841 841 842 842 842 842 843 843 844 844 844 844 844 843
780 783 786 789 790 792 793 794 796 798 799 800 802 803 805 807 808 810 812 813 813 815 816 817 818 819 820 821 822 823 824 826 827 827 828 828 829 829 830 830 831 832 833 834 834 835 835 836 836 836 837 837 837 837 838 838 838 838 838 838 838 838 838 839 839 840 840 841 841 842 843 843 843 843 843 843 844 844 845 845 845 845 845 845 845
781 785 787 789 792 793 794 795 797 799 800 801 803 804 806 808 809 811 812 814 815 816 817 818 819 820 821 822 823 824 825 826 827 828 829 829 830 830 830 831 832 833 834 835 835 836 837 837 837 837 838 838 838 838 839 839 839 839 840 840 840 840 840 840 841 841 841 842 842 844 845 845 845 845 845 845 845 846 846 847 847 847 847 847 846
783 786 788 790 792 794 795 796 798 799 801 802 803 805 807 808 810 812 813 815 816 817 818 819 820 821 822 823 824 825 826 827 828 829 830 830 831 831 831 832 833 834 835 836 837 837 837 838 838 838 839 839 839 839 840 840 840 840 841 841 841 841 841 842 842 842 842 843 844 845 846 846 847 847 847 847 847 847 847 848 848 849 849 849 848
784 787 789 791 793 794 796 797 798 800 802 803 804 806 808 809 811 812 814 815 816 817 818 819 820 821 822 823 824 825 827 828 829 830 831 831 832 832 832 833 834 835 836 837 838 838 838 838 839 839 839 840 840 840 840 841 841 841 841 842 842 842 842 843 843 843 844 844 845 846 847 848 848 848 848 848 848 848 848 849 849 850 850 850 850
786 788 789 792 793 795 796 797 799 801 802 804 805 807 809 810 811 813 814 816 817 818 819 820 821 822 823 824 825 826 828 829 829 831 832 832 833 833 833 834 835 836 837 838 838 838 839 839 839 840 840 840 841 841 841 842 842 842 842 842 842 843 843 843 844 844 845 846 846 847 848 849 849 850 850 849 849 849 850 850 850 851 851 851 852
786 789 790 792 794 795 796 798 800 801 803 804 806 808 810 811 812 813 815 816 817 819 820 821 822 823 824 825 826 827 829 830 830 831 833 833 834 834 834 835 836 837 837 838 838 839 839 839 840 840 841 841 841 841 842 842 843 843 843 843 843 844 844 844 845 845 846 847 848 848 849 850 850 851 851 850 850 850 851 852 852 852 852 852 852
787 790 791 793 794 796 797 798 800 801 803 805 807 808 810 811 813 814 815 817 818 819 820 821 823 824 825 826 827 828 829 830 831 832 833 834 834 835 835 836 837 837 838 838 839 839 840 840 841 841 841 842 842 842 842 843 843 844 844 844 844 844 844 845 845 846 847 849 849 849 850 851 851 852 852 851 851 851 852 853 853 853 853 853 853
788 790 792 794 795 797 797 799 801 802 803 805 807 809 811 812 814 815 816 818 819 820 821 822 823 824 825 827 828 829 830 831 832 833 834 835 835 836 836 837 837 838 839 839 839 840 840 841 841 842 842 842 843 843 843 844 844 845 845 844 845 845 845 845 846 847 848 849 850 851 851 852 852 853 853 853 852 853 853 854 854 854 854 854 854
789 791 793 795 796 798 798 800 801 803 804 805 807 809 811 813 814 816 817 818 819 821 822 823 824 825 826 827 828 829 830 831 832 833 834 835 836 837 837 838 838 839 839 840 840 840 841 841 842 843 843 843 843 844 844 844 845 845 845 845 845 846 846 846 847 848 849 850 851 852 852 853 853 854 854 854 854 854 854 855 855 855 855 855 855
788 791 794 796 798 799 800 801 803 804 805 806 808 810 812 814 815 817 818 819 820 821 822 823 824 825 826 828 829 830 831 832 833 834 835 836 837 837 838 838 839 840 840 841 841 842 842 843 843 844 844 844 844 844 845 845 845 846 846 846 846 846 846 847 848 849 850 851 852 853 853 854 854 855 855 855 855 855 856 856 856 856 856 856 856
789 792 795 797 799 801 802 803 804 805 806 807 809 811 813 814 816 817 819 820 821 822 823 824 825 826 827 828 830 831 832 833 834 835 836 836 837 838 838 839 840 840 841 842 842 843 844 844 844 845 845 845 845 845 845 846 846 846 847 847 847 847 847 848 849 850 851 852 853 854 854 855 855 856 856 856 856 856 857 857 857 857 857 858 858
791 793 795 798 800 802 804 805 806 806 807 809 810 812 814 816 817 818 819 821 822 823 824 825 826 827 828 829 830 832 833 834 835 836 836 837 838 838 839 840 841 841 842 843 844 844 845 845 845 846 846 846 846 846 846 846 847 847 847 848 848 848 848 849 850 850 851 853 854 855 856 856 856 857 857 857 857 857 858 858 858 858 858 859 859
793 795 796 798 801 803 805 807 808 808 809 811 812 814 816 817 818 819 820 821 823 823 824 825 826 828 829 830 831 832 833 834 835 836 837 838 839 839 840 841 842 842 843 843 844 845 846 846 847 847 847 847 847 847 847 847 848 848 848 848 849 849 850 850 851 851 852 853 855 856 857 857 857 857 858 859 859 859 859 859 859 859 859 860 860
795 796 798 799 801 804 806 808 809 810 811 813 814 816 817 818 819 820 821 822 823 824 825 826 827 828 829 831 832 833 834 835 836 837 837 838 839 840 841 842 842 843 844 844 845 845 846 847 847 848 848 848 848 848 848 848 849 849 849 849 850 850 851 851 852 853 853 854 856 857 858 858 858 858 859 860 860 860 860 860 860 860 860 860 861
796 798 800 801 803 805 807 809 810 812 813 814 816 817 818 819 820 821 822 823 824 825 826 827 828 829 830 831 833 834 835 836 836 837 838 839 839 840 841 842 843 844 845 845 845 845 846 847 847 848 848 849 849 849 849 850 850 850 850 850 851 851 852 852 853 854 855 856 857 858 859 859 859 859 860 861 861 861 861 861 861 861 861 861 861
798 800 802 804 805 806 807 810 811 812 813 815 816 817 819 819 820 822 823 824 825 826 827 828 829 830 831 832 834 834 835 836 837 838 838 839 840 841 842 842 843 844 845 846 845 846 846 847 847 848 849 849 850 850 850 851 851 851 851 852 852 852 853 854 855 856 856 857 858 859 860 860 860 860 861 861 862 862 862 862 862 862 862 862 862
799 801 803 805 807 808 808 810 811 812 814 815 816 818 819 820 822 823 824 825 825 827 828 829 830 831 832 833 834 835 836 837 838 838 839 840 840 841 842 843 843 843 845 846 846 846 846 847 847 848 849 850 850 851 851 852 852 853 853 853 853 854 855 855 856 857 858 858 859 860 860 860 861 861 861 862 863 863 863 863 863 863 863 863 863
800 802 804 806 807 808 809 810 811 813 814 816 817 818 820 821 823 824 825 825 826 827 828 829 830 831 833 833 834 835 836 837 838 839 839 840 841 841 843 843 843 843 845 846 846 846 846 847 848 848 849 850 851 851 852 853 854 854 854 854 855 855 856 856 857 858 859 860 860 860 861 861 862 862 862 863 863 863 863 864 864 864 863 863 863
799 801 803 805 807 808 809 811 812 813 815 816 817 819 820 821 823 824 825 826 827 828 829 830 830 832 833 834 835 836 836 837 838 839 839 840 841 842 842 843 844 844 845 846 846 846 847 847 847 848 849 850 851 852 852 853 854 855 855 855 855 856 857 857 858 859 860 861 861 861 861 862 862 862 863 863 864 864 864 865 864 864 864 864 864
797 799 801 804 806 808 809 811 812 813 815 816 818 819 820 822 823 824 826 827 828 829 829 830 831 832 833 834 835 836 837 838 838 839 839 840 841 842 842 844 845 845 846 846 846 847 847 847 848 849 850 851 852 852 853 853 854 856 856 856 856 857 857 858 859 860 861 862 862 862 862 863 863 863 864 864 864 864 865 865 865 865 865 865 864
795 798 800 802 805 807 808 810 811 813 815 816 818 819 821 822 823 824 825 827 828 828 829 830 831 832 833 834 835 836 837 838 839 839 840 841 842 842 843 844 845 845 846 846 846 847 847 847 848 849 850 851 852 853 853 854 855 856 856 856 857 858 858 859 860 861 862 863 863 863 863 864 864 864 865 865 865 865 865 866 866 865 865 865 865
792 795 798 801 804 806 807 809 811 812 814 816 818 820 821 822 823 824 825 826 827 828 829 830 831 832 833 834 835 836 837 838 839 840 840 841 841 842 843 844 845 845 846 846 846 846 847 847 848 849 850 852 853 853 854 854 855 855 856 856 857 858 859 860 861 862 863 863 864 864 864 865 865 865 866 865 865 865 866 866 866 866 866 866 866
789 793 797 800 802 805 807 808 810 812 814 816 818 820 821 822 823 824 825 826 827 828 829 830 831 832 833 834 835 836 837 839 840 841 841 841 842 842 844 845 845 846 846 846 846 847 847 848 848 849 850 852 853 854 855 855 855 855 856 857 858 859 860 861 862 863 864 864 865 865 865 866 866 866 867 866 866 866 866 867 867 867 867 867 867
789 792 795 799 802 804 806 808 810 812 813 816 818 819 820 822 823 824 824 825 826 828 829 830 832 832 833 834 835 836 837 839 840 840 841 841 842 843 844 845 845 846 846 847 847 847 848 848 849 849 851 852 853 854 855 855 855 856 856 857 858 859 860 861 862 863 864 865 866 866 867 867 867 867 867 867 867 867 867 867 867 867 868 868 867
789 792 795 798 801 804 806 808 810 811 813 815 817 818 820 821 823 824 824 825 826 828 829 830 831 832 834 835 835 837 837 839 840 840 841 842 842 843 844 845 845 846 846 847 847 848 848 848 849 850 851 852 853 854 855 855 856 856 857 858 859 860 861 862 863 864 865 866 867 867 867 867 867 868 868 868 868 868 868 868 868 868 868 868 868
790 793 796 798 800 803 805 807 809 811 812 814 816 817 819 821 822 823 824 825 826 827 829 830 831 832 833 834 835 837 838 839 840 840 841 842 842 843 844 845 845 846 846 847 847 848 848 848 849 850 851 852 853 853 854 855 855 856 857 858 859 860 861 862 863 864 865 866 867 867 868 868 868 868 869 869 869 869 869 869 869 869 869 869 869
791 793 796 797 800 803 805 807 809 810 812 815 816 818 819 820 822 823 824 825 826 827 829 830 831 832 833 834 835 836 838 839 840 841 841 842 842 843 843 844 845 845 846 847 847 847 847 848 849 849 850 851 852 853 853 854 855 856 857 858 859 860 861 862 863 864 865 866 867 868 868 869 869 869 870 870 870 870 870 870 870 870 870 871 871
790 793 796 797 800 803 806 807 808 810 812 814 816 818 820 821 821 823 823 824 825 827 828 829 830 831 832 834 835 836 838 839 840 840 841 841 842 842 843 844 844 845 845 846 846 847 847 847 848 849 850 851 852 853 853 854 855 856 857 858 858 859 861 862 864 865 866 867 867 868 869 869 869 870 870 870 870 870 870 870 870 871 871 872 871
792 795 798 799 800 803 806 806 808 810 812 814 817 818 820 821 822 822 823 823 825 826 827 828 829 830 832 833 835 836 837 839 840 840 841 841 842 842 843 843 844 844 845 846 846 847 847 848 848 849 850 851 852 853 854 855 856 857 858 858 859 860 861 863 864 866 867 868 868 869 870 870 870 870 871 871 871 871 871 871 871 871 872 872 872
795 797 799 800 800 802 805 807 808 810 812 815 817 819 820 820 821 822 822 823 824 826 826 828 829 830 831 833 834 836 837 838 839 840 841 841 842 842 842 843 843 844 845 845 846 847 847 848 849 850 850 851 852 853 855 856 857 858 859 859 860 862 863 864 865 866 868 869 869 869 870 871 871 871 872 872 872 872 871 871 871 872 872 872 872
796 797 799 799 800 802 804 806 808 810 812 814 815 818 820 820 820 821 821 822 824 825 826 827 828 830 831 832 834 835 836 838 839 840 841 841 841 842 842 843 843 844 844 845 846 846 847 848 849 850 851 852 853 854 855 856 858 858 858 859 861 863 864 864 865 867 868 869 869 870 871 872 872 872 872 872 872 872 872 872 872 873 873 873 873
795 797 798 799 800 802 803 805 808 809 812 813 814 817 818 818 820 820 821 822 823 824 826 827 828 829 831 832 833 834 836 837 838 839 840 841 841 841 842 842 843 843 844 845 845 846 847 848 848 850 851 852 853 854 856 857 858 858 859 859 861 863 863 864 864 866 868 869 870 871 872 873 873 873 873 873 873 873 873 873 873 873 873 873 873
791 794 797 799 800 801 803 805 807 808 811 812 814 816 817 818 819 820 821 822 823 824 826 827 828 829 830 832 833 834 835 836 838 839 840 840 841 841 841 842 842 843 844 844 845 846 846 847 848 849 850 852 853 855 856 857 858 859 860 860 861 862 863 864 865 866 868 869 870 871 873 873 873 873 873 874 874 873 874 874 874 874 874 874 873
786 789 793 797 799 800 802 804 806 808 810 811 812 814 815 817 818 819 820 821 823 824 825 826 828 829 830 831 832 833 834 835 837 838 839 840 840 840 841 841 842 842 843 844 845 845 846 847 848 849 850 852 854 855 857 858 859 859 860 861 862 862 864 865 867 867 868 869 870 871 872 873 873 873 873 874 874 874 875 875 875 875 874 874 874
784 786 789 793 796 799 801 803 805 807 809 810 811 813 814 816 817 819 820 821 823 824 825 826 827 829 830 831 832 833 834 835 836 838 839 840 840 840 840 841 841 842 843 844 844 845 846 847 848 849 850 852 854 856 857 858 859 859 860 861 862 863 865 866 867 868 868 868 870 871 872 872 873 873 873 874 874 874 875 875 876 875 875 874 874
784 786 788 791 794 797 800 802 804 805 807 810 811 812 814 815 817 818 820 821 822 823 825 826 827 828 829 831 831 832 833 834 836 837 838 839 840 840 840 840 841 842 843 843 844 845 846 846 848 849 850 852 854 856 857 858 859 860 860 861 863 865 866 867 867 868 868 869 869 870 871 872 873 873 874 874 874 875 875 875 876 876 875 874 874
782 784 786 789 792 795 797 799 801 803 805 808 809 811 812 814 816 817 819 820 822 823 824 825 826 828 829 831 831 832 833 834 835 836 838 839 839 840 840 840 841 842 843 843 844 845 846 846 848 849 851 852 854 856 857 858 860 861 861 862 864 866 866 867 867 868 869 869 870 870 871 872 873 873 874 874 875 875 875 875 876 876 875 874 874
779 781 783 786 789 792 794 796 799 802 803 805 808 809 811 813 814 816 818 819 821 822 824 825 826 827 829 830 831 832 833 833 835 836 837 838 838 839 840 840 841 842 842 843 844 845 846 847 848 849 851 853 854 856 857 858 859 861 861 862 865 867 868 867 867 869 869 870 870 871 871 872 872 872 873 874 875 875 875 875 876 875 875 874 874
778 780 782 784 787 789 792 795 797 799 801 803 806 808 810 811 813 815 817 818 820 821 823 824 825 827 828 829 830 831 832 833 834 835 836 837 837 838 839 840 840 841 842 843 843 845 846 847 848 850 851 853 855 856 857 858 859 861 861 862 865 867 869 869 868 869 870 870 870 871 872 871 871 872 874 874 875 875 876 876 876 875 875 874 874
776 778 781 783 785 787 790 793 795 797 799 801 803 806 808 811 813 814 815 817 819 821 822 824 825 826 828 829 830 830 831 832 833 834 835 836 836 837 838 839 840 841 842 842 843 845 846 847 848 849 851 852 854 856 857 858 858 859 860 862 864 865 867 869 869 870 870 870 871 871 872 872 872 873 874 874 875 875 876 876 876 875 875 875 874
774 777 780 783 784 786 788 791 794 795 797 799 801 804 806 808 811 812 814 816 817 819 821 823 824 826 827 828 829 830 831 832 833 834 834 835 836 836 837 838 839 840 841 842 843 844 845 846 848 849 850 852 853 855 857 858 858 858 858 860 862 863 865 867 868 870 871 871 872 873 872 872 873 874 874 875 875 876 877 877 877 876 876 875 875
775 777 779 782 783 785 787 789 792 793 795 797 799 802 803 805 806 808 811 813 815 817 819 821 823 824 826 826 828 829 830 831 832 833 834 834 835 836 836 838 839 840 841 842 843 844 845 846 847 849 850 851 853 855 856 857 858 858 858 858 858 859 861 864 865 868 871 871 872 873 873 873 873 874 875 876 876 877 878 878 878 877 877 877 876
775 776 778 780 782 783 786 788 790 791 793 795 797 800 801 802 803 805 808 811 813 815 817 819 821 823 824 826 827 828 830 831 832 833 834 834 835 835 836 837 838 839 840 841 843 844 845 846 847 848 850 851 853 854 856 857 858 858 858 858 857 858 859 861 862 865 868 871 873 873 873 874 874 875 876 877 878 878 879 879 879 879 879 878 878
774 775 777 779 781 783 784 786 788 789 790 792 795 797 799 800 801 804 807 809 810 813 815 818 820 822 823 825 826 828 829 831 832 833 833 834 834 835 835 837 838 839 840 841 842 844 845 846 847 848 850 851 852 854 855 857 858 858 858 858 858 859 860 860 861 862 864 869 873 873 874 875 875 876 877 878 879 879 880 881 881 881 880 880 880
774 775 777 778 780 783 784 785 786 788 789 792 795 797 798 799 801 803 805 807 809 811 814 816 818 820 822 824 826 827 829 830 831 832 833 834 834 835 836 836 838 839 840 841 842 843 844 845 847 848 849 851 852 853 855 856 857 857 859 859 859 860 861 861 862 862 863 867 871 873 874 875 876 877 878 879 880 880 881 882 882 882 882 881 881
774 775 777 779 780 781 782 783 785 787 790 794 797 799 800 801 802 804 805 806 809 811 813 815 817 820 822 823 825 827 828 830 831 832 833 834 835 835 836 837 838 839 839 840 841 842 844 845 846 847 849 850 851 853 854 855 856 857 859 859 859 860 861 861 862 863 863 865 869 872 874 875 877 879 880 880 881 881 882 882 883 883 883 882 882
775 776 778 779 780 781 781 782 784 787 790 794 798 800 803 803 803 805 807 807 809 811 812 814 816 819 821 823 825 826 828 829 830 832 833 834 835 836 836 837 838 839 839 840 841 842 844 845 846 847 848 850 851 852 853 854 855 856 858 858 858 859 859 860 861 862 863 864 867 871 873 874 876 879 880 881 881 882 883 883 883 883 883 883 883